Flag for U.S.A. Weather past 2 weeks in Kennebunk, Maine, U.S.A.

Now
28 °F

Passing clouds.


Feels Like: 22 °F
Forecast: 28 / 45 °F
Wind: 6 mph from Southwest

Location: Sanford Municipal

Current Time: Mar 30, 2015 at 6:24:18 AM

Latest Report: Mar 30, 2015 at 5:55 AM


Visibility: 10 mi

Pressure: 29.91 "Hg

Humidity: 43%

Dew point: 9 °F

Location of KennebunkLocation

Historic Weather in Kennebunk — Graph

°F

Kennebunk temperature yesterday

Maximum temperature yesterday: 43 °F (at 4:55 PM)
Minimum temperature yesterday: 12 °F (at 6:55 AM)
Average temperature yesterday: 29 °F

Past Weeks' High & Low Weather Summary

 TemperatureHumidityPressure
High54 °F (Mar 26, 12:55 PM)93% (Mar 26, 5:55 AM)30.40 "Hg (Mar 26, 5:55 AM)
Low3 °F (Mar 24, 6:55 AM)19% (Mar 29, 4:15 PM)29.35 "Hg (Mar 17, 3:15 PM)
Average28 °F56%29.95 "Hg
* Reported Mar 15 5:15 AM — Mar 30 5:15 AM, Kennebunk, Weather by CustomWeather, © 2015

Note: Actual official high and low records may vary slightly from our data, if they occured in-between our weather recording intervals... More about our weather records

Advertising

Kennebunk weather history for previous 24 hours

 ConditionsComfort  
Time TempWeatherWind HumidityBarometerVisibility
5:15 AM
Mon, Mar 30
27 °FClear.5 mph54%29.92 "Hg10 mi
4:55 AM27 °FClear.7 mph50%29.92 "Hg10 mi
4:35 AM27 °FClear.3 mph46%29.92 "Hg10 mi
4:15 AM27 °FClear.3 mph46%29.94 "Hg10 mi
3:55 AM27 °FClear.6 mph54%29.96 "Hg10 mi
3:35 AM27 °FClear.5 mph54%29.97 "Hg10 mi
3:15 AM27 °FClear.5 mph50%29.97 "Hg10 mi
2:55 AM27 °FClear.6 mph46%29.98 "Hg10 mi
2:35 AM27 °FClear.6 mph54%30.00 "Hg10 mi
2:15 AM25 °FClear.6 mph69%30.00 "Hg10 mi
1:55 AM27 °FClear.6 mph64%30.01 "Hg10 mi
1:35 AM27 °FClear.3 mph54%30.01 "Hg10 mi
1:15 AM27 °FClear.3 mph54%30.01 "Hg10 mi
12:55 AM28 °FClear.5 mph59%30.03 "Hg10 mi
12:35 AM28 °FClear.8 mph64%30.03 "Hg10 mi
12:15 AM28 °FClear.5 mph69%30.04 "Hg10 mi
11:55 PM
Sun, Mar 29
28 °FClear.No wind69%30.04 "Hg10 mi
11:35 PM28 °FClear.5 mph59%30.04 "Hg10 mi
11:15 PM28 °FClear.3 mph59%30.05 "Hg10 mi
10:55 PM28 °FClear.6 mph64%30.06 "Hg10 mi
10:35 PM30 °FClear.7 mph59%30.06 "Hg10 mi
10:15 PM28 °FClear.7 mph59%30.07 "Hg10 mi
9:55 PM27 °FClear.6 mph59%30.07 "Hg10 mi
9:35 PM25 °FClear.No wind63%30.08 "Hg10 mi
9:15 PM25 °FClear.No wind69%30.08 "Hg10 mi
8:55 PM25 °FClear.No wind59%30.08 "Hg10 mi
8:35 PM27 °FClear.No wind59%30.08 "Hg10 mi
8:15 PM27 °FClear.No wind59%30.08 "Hg10 mi
7:55 PM27 °FSunny.No wind54%30.08 "Hg10 mi
7:35 PM30 °FSunny.No wind31%30.08 "Hg10 mi
7:15 PM34 °FSunny.3 mph32%30.08 "Hg10 mi
6:55 PM37 °FSunny.5 mph28%30.08 "Hg10 mi
6:35 PM39 °FSunny.7 mph22%30.07 "Hg10 mi
6:15 PM39 °FSunny.8 mph22%30.07 "Hg10 mi
5:55 PM39 °FSunny.8 mph22%30.07 "Hg10 mi
5:15 PM41 °FSunny.6 mph20%30.07 "Hg10 mi
4:55 PM43 °FSunny.8 mph22%30.07 "Hg10 mi
4:35 PM39 °FSunny.6 mph22%30.07 "Hg10 mi
4:15 PM41 °FSunny.6 mph19%30.08 "Hg10 mi
3:55 PM39 °FSunny.7 mph22%30.08 "Hg10 mi
3:35 PM39 °FSunny.12 mph20%30.08 "Hg10 mi
3:15 PM39 °FSunny.7 mph24%30.09 "Hg10 mi
2:55 PM39 °FSunny.7 mph20%30.10 "Hg10 mi
2:35 PM39 °FSunny.10 mph20%30.11 "Hg10 mi
2:15 PM39 °FSunny.7 mph20%30.11 "Hg10 mi
1:55 PM39 °FSunny.9 mph20%30.12 "Hg10 mi
1:35 PM39 °FSunny.5 mph22%30.13 "Hg10 mi
1:15 PM39 °FSunny.8 mph22%30.14 "Hg10 mi
12:55 PM37 °FSunny.No wind23%30.15 "Hg10 mi
12:35 PM39 °FSunny.3 mph26%30.15 "Hg10 mi
12:15 PM37 °FSunny.7 mph28%30.15 "Hg10 mi
11:55 AM37 °FSunny.6 mph28%30.16 "Hg10 mi
11:35 AM36 °FSunny.6 mph25%30.17 "Hg10 mi
11:15 AM34 °FSunny.7 mph25%30.17 "Hg10 mi
10:55 AM34 °FSunny.5 mph27%30.18 "Hg10 mi
10:35 AM34 °FSunny.No wind27%30.18 "Hg10 mi
10:15 AM30 °FSunny.No wind29%30.18 "Hg10 mi
9:55 AM30 °FSunny.5 mph31%30.18 "Hg10 mi
9:35 AM30 °FSunny.No wind37%30.18 "Hg10 mi
9:15 AM30 °FSunny.No wind37%30.17 "Hg10 mi
8:55 AM28 °FSunny.3 mph40%30.17 "Hg10 mi
8:35 AM27 °FSunny.No wind36%30.17 "Hg10 mi
8:15 AM25 °FSunny.5 mph46%30.16 "Hg10 mi
7:55 AM23 °FSunny.6 mph58%30.15 "Hg10 mi
7:35 AM21 °FSunny.No wind58%30.14 "Hg10 mi
7:15 AM16 °FClear.No wind73%30.14 "Hg10 mi
6:55 AM12 °FClear.No wind85%30.13 "Hg10 mi
6:35 AM14 °FClear.No wind73%30.12 "Hg10 mi
6:15 AM16 °FClear.No wind62%30.11 "Hg10 mi
Weather by CustomWeather, © 2015

See weather overviewHow to use our weather pages